Location: Rancho Del Sol Observatory
(38.7214°N, 120.6350°W)
Time: 18:33:16
(UTC-08:00)

A-11 Canister half - Pass Details

Date: 04 February 2020
Orbit: 1517 x 1683 km, 47.2° (Epoch: 19 February)

Event Time Altitude Azimuth Distance (km) Brightness Sun altitude
Rises 22:28:06 0° 266° (W) 4,789 11.9 -57.2°
Reaches altitude 10° 22:31:20 10° 271° (W) 3,782 11.3 -57.7°
Enters shadow 22:32:49 16° 274° (W) 3,340 11.0 -57.9°
Maximum altitude 22:40:40 55° 348° (NNW) 1,807 - -59.1°
Drops below altitude 10° 22:49:46 10° 65° (ENE) 3,688 - -60.4°
Sets 22:52:54 0° 70° (ENE) 4,663 - -60.9°
